Home > Weather > Kawasaki > Past weeks

Flag for Japan Weather for the Past 2 Weeks in Kawasaki, Japan

Now
46 °F

Passing clouds.


Feels Like: 40 °F
Forecast: 35 / 46 °F
Wind: 14 mph from North

Location: Tokyo International Airport

Current Time: Feb 7, 2016 at 1:27:17 PM

Latest Report: Feb 7, 2016 at 12:30 PM


Visibility: N/A

Pressure: 29.95 "Hg

Humidity: 32%

Dew point: 18 °F

Location of KawasakiLocation

Historic Weather in Kawasaki — Graph

°F

Kawasaki Temperature Yesterday

Maximum temperature yesterday: 48 °F (at 12:30 PM)
Minimum temperature yesterday: 43 °F (at 6:00 AM)
Average temperature yesterday: 45 °F

High & Low Weather Summary for the Past Weeks

 TemperatureHumidityPressure
High54 °F (Jan 27, 12:30 PM)100% (Jan 30, 2:00 AM)30.33 "Hg (Jan 30, 2:00 AM)
Low28 °F (Jan 25, 5:30 AM)14% (Jan 24, 2:00 PM)29.50 "Hg (Jan 24, 1:30 PM)
Average43 °F59%30.05 "Hg
* Reported Jan 23 12:00 Noon — Feb 7 12:00 Noon, Kawasaki, Weather by CustomWeather, © 2016

Note: Actual official high and low records may vary slightly from our data, if they occured in-between our weather recording intervals... More about our weather records

Advertising

Kawasaki Weather History for the Previous 24 Hours

 ConditionsComfort  
Time TempWeatherWind HumidityBarometerVisibility
12:00 PM
Sun, Feb 7
46 °FPassing clouds.16 mph32%29.95 "HgN/A
11:30 AM45 °FPassing clouds.18 mph31%29.95 "HgN/A
11:00 AM45 °FPassing clouds.17 mph42%29.98 "HgN/A
10:30 AM43 °FPassing clouds.21 mph42%29.98 "HgN/A
10:00 AM43 °FPassing clouds.20 mph42%29.98 "HgN/A
9:30 AM43 °FPassing clouds.21 mph39%29.98 "HgN/A
9:00 AM41 °FPassing clouds.18 mph45%29.98 "HgN/A
8:30 AM41 °FPassing clouds.12 mph53%29.98 "HgN/A
8:00 AM39 °FScattered clouds.14 mph52%29.95 "HgN/A
7:30 AM39 °FPartly sunny.15 mph61%29.95 "HgN/A
7:00 AM39 °FBroken clouds.14 mph61%29.95 "HgN/A
6:00 AM39 °FPassing clouds.14 mph65%29.92 "HgN/A
5:30 AM37 °FPassing clouds.15 mph70%29.89 "HgN/A
5:00 AM39 °FPassing clouds.17 mph65%29.89 "HgN/A
4:30 AM39 °FPassing clouds.18 mph70%29.89 "HgN/A
4:00 AM37 °FPassing clouds.21 mph75%29.86 "HgN/A
3:30 AM37 °FPassing clouds.16 mph81%29.89 "HgN/A
3:00 AM37 °FPartly cloudy.21 mph81%29.89 "HgN/A
2:30 AM37 °FSprinkles. Partly cloudy.21 mph81%29.89 "HgN/A
2:00 AM39 °FPartly cloudy.21 mph75%29.89 "HgN/A
1:30 AM39 °FPartly cloudy.21 mph81%29.89 "HgN/A
1:00 AM39 °FPartly cloudy.18 mph81%29.89 "HgN/A
12:30 AM41 °FPartly cloudy.25 mph76%29.89 "HgN/A
12:00 AM41 °FPartly cloudy.22 mph81%29.86 "HgN/A
11:30 PM
Sat, Feb 6
43 °FPartly cloudy.21 mph76%29.86 "HgN/A
11:00 PM43 °FPassing clouds.20 mph76%29.86 "HgN/A
10:30 PM43 °FPartly cloudy.22 mph81%29.86 "HgN/A
10:00 PM45 °FPartly cloudy.21 mph81%29.86 "HgN/A
9:30 PM45 °FPartly cloudy.20 mph81%29.86 "HgN/A
9:00 PM45 °FPassing clouds.20 mph76%29.89 "HgN/A
8:30 PM45 °FPassing clouds.18 mph81%29.89 "HgN/A
8:00 PM45 °FPassing clouds.18 mph81%29.86 "HgN/A
7:30 PM45 °FPartly cloudy.20 mph81%29.86 "HgN/A
7:00 PM45 °FPartly cloudy.17 mph81%29.86 "HgN/A
6:30 PM45 °FPassing clouds.17 mph81%29.86 "HgN/A
6:00 PM46 °FPassing clouds.16 mph82%29.86 "HgN/A
5:30 PM46 °FPartly cloudy.16 mph82%29.86 "HgN/A
5:00 PM46 °FBroken clouds.17 mph82%29.86 "HgN/A
4:30 PM46 °FPartly sunny.16 mph82%29.86 "HgN/A
4:00 PM46 °FOvercast.15 mph82%29.83 "HgN/A
3:30 PM46 °FOvercast.14 mph82%29.83 "HgN/A
3:00 PM48 °FOvercast.15 mph76%29.83 "HgN/A
2:30 PM48 °FOvercast.13 mph71%29.83 "HgN/A
2:00 PM48 °FOvercast.10 mph71%29.83 "HgN/A
1:00 PM48 °FOvercast.8 mph66%29.83 "HgN/A
Weather by CustomWeather, © 2016

See weather overviewHow to use our weather pages